カタログに戻る

STARLINK-30793

運用中通信VLEO
NORAD 58185·PAYLOAD·🇺🇸 United States

打ち上げ Oct 30, 2023 から Cape Canaveral Space Force Station

Loading…

次のパス (今後24時間)

TLE

最新Source: CelesTrak SupGP

元期: Sep 15, 2026, 02:05 UTC

1 58185C 23167L   26258.08729167  .00051707  00000+0  18728-2 0  2584
2 58185  43.0028 153.7821 0001447 261.4610   2.8394 15.27554031    19

AllMySatでSTARLINK-30793をリアルタイム追跡

Download on the App Store